Location: Borgo
(42.3939°N, 9.2791°E)
Time: 09:33:04
(UTC+00:00)

Cosmos 1340 - Pass Details

Date: 27 February 2020
Orbit: 501 x 506 km, 81.2° (Epoch: 03 April)

Event Time Altitude Azimuth Distance (km) Brightness Sun altitude
Rises 18:01:04 0° 203° (SSW) 2,589 6.6 -10.3°
Reaches altitude 10° 18:03:14 10° 210° (SSW) 1,709 5.8 -10.7°
Maximum altitude 18:06:50 44° 283° (WNW) 710 4.0 -11.4°
Drops below altitude 10° 18:10:27 10° 357° (N) 1,721 5.4 -12.0°
Sets 18:12:40 0° 4° (N) 2,609 6.2 -12.4°
